TimeCDT,TemperatureF,Dew PointF,Humidity,Sea Level PressureIn,VisibilityMPH,Wind Direction,Wind SpeedMPH,Gust SpeedMPH,PrecipitationIn,Events,Conditions,WindDirDegrees,DateUTC
12:15 AM,39.2,24.8,56,30.08,10.0,SSW,6.9,-,N/A,,Overcast,210,2012-10-11 05:15:00
12:35 AM,41.0,24.8,53,30.08,10.0,SSW,8.1,-,N/A,,Overcast,210,2012-10-11 05:35:00
12:55 AM,42.8,24.8,49,30.07,10.0,SSW,8.1,-,N/A,,Overcast,200,2012-10-11 05:55:00
1:15 AM,42.8,24.8,49,30.06,10.0,SSW,8.1,-,N/A,,Overcast,200,2012-10-11 06:15:00
1:55 AM,42.8,24.8,49,30.04,10.0,South,9.2,-,N/A,,Overcast,190,2012-10-11 06:55:00
2:15 AM,42.8,24.8,49,30.04,10.0,SSW,9.2,-,N/A,,Overcast,200,2012-10-11 07:15:00
2:35 AM,44.6,24.8,46,30.03,10.0,SSW,10.4,-,N/A,,Overcast,200,2012-10-11 07:35:00
2:55 AM,44.6,24.8,46,30.02,10.0,South,9.2,17.3,N/A,,Overcast,190,2012-10-11 07:55:00
3:15 AM,42.8,26.6,53,30.01,10.0,South,9.2,-,N/A,,Mostly Cloudy,190,2012-10-11 08:15:00
3:35 AM,42.8,26.6,53,30.01,10.0,South,12.7,-,N/A,,Mostly Cloudy,190,2012-10-11 08:35:00
3:55 AM,42.8,26.6,53,30.00,10.0,South,11.5,-,N/A,,Overcast,180,2012-10-11 08:55:00
4:15 AM,44.6,26.6,49,29.99,10.0,South,13.8,-,N/A,,Overcast,180,2012-10-11 09:15:00
4:35 AM,44.6,26.6,49,29.97,10.0,South,16.1,-,N/A,,Overcast,170,2012-10-11 09:35:00
4:55 AM,44.6,26.6,49,29.97,10.0,South,16.1,21.9,N/A,,Overcast,180,2012-10-11 09:55:00
5:15 AM,44.6,26.6,49,29.96,10.0,South,16.1,-,N/A,,Overcast,170,2012-10-11 10:15:00
5:35 AM,44.6,26.6,49,29.95,10.0,South,16.1,25.3,N/A,,Overcast,180,2012-10-11 10:35:00
5:55 AM,44.6,26.6,49,29.94,10.0,South,16.1,21.9,N/A,,Overcast,180,2012-10-11 10:55:00
6:15 AM,44.6,26.6,49,29.92,10.0,South,16.1,21.9,N/A,,Overcast,190,2012-10-11 11:15:00
6:35 AM,44.6,26.6,49,29.92,10.0,South,11.5,20.7,N/A,,Overcast,190,2012-10-11 11:35:00
6:55 AM,46.4,26.6,46,29.92,10.0,SSW,11.5,19.6,N/A,,Overcast,200,2012-10-11 11:55:00
7:15 AM,46.4,28.4,50,29.92,10.0,SW,16.1,20.7,N/A,,Overcast,220,2012-10-11 12:15:00
7:35 AM,48.2,28.4,46,29.92,10.0,SW,12.7,21.9,N/A,,Overcast,230,2012-10-11 12:35:00
7:55 AM,50.0,28.4,43,29.91,10.0,SW,13.8,21.9,N/A,,Overcast,220,2012-10-11 12:55:00
8:15 AM,51.8,28.4,41,29.91,10.0,WSW,21.9,32.2,N/A,,Overcast,240,2012-10-11 13:15:00
8:35 AM,50.0,28.4,43,29.91,10.0,WSW,17.3,27.6,N/A,,Overcast,240,2012-10-11 13:35:00
8:55 AM,48.2,28.4,46,29.91,10.0,WSW,17.3,23.0,N/A,,Overcast,240,2012-10-11 13:55:00
9:15 AM,48.2,30.2,50,29.91,10.0,SW,19.6,26.5,N/A,,Overcast,230,2012-10-11 14:15:00
9:35 AM,50.0,30.2,47,29.92,10.0,WSW,17.3,25.3,N/A,,Overcast,250,2012-10-11 14:35:00
9:55 AM,51.8,30.2,44,29.92,10.0,WSW,19.6,27.6,N/A,,Overcast,240,2012-10-11 14:55:00
10:15 AM,51.8,30.2,44,29.93,10.0,WSW,23.0,29.9,N/A,,Mostly Cloudy,250,2012-10-11 15:15:00
10:35 AM,53.6,32.0,44,29.93,10.0,WSW,13.8,23.0,N/A,,Mostly Cloudy,250,2012-10-11 15:35:00
10:55 AM,53.6,32.0,44,29.94,10.0,WSW,15.0,24.2,N/A,,Overcast,250,2012-10-11 15:55:00
11:15 AM,53.6,32.0,44,29.95,10.0,West,17.3,25.3,N/A,,Mostly Cloudy,270,2012-10-11 16:15:00
11:35 AM,55.4,32.0,41,29.96,10.0,West,20.7,31.1,N/A,,Overcast,270,2012-10-11 16:35:00
11:55 AM,55.4,30.2,38,29.97,10.0,West,16.1,25.3,N/A,,Overcast,260,2012-10-11 16:55:00
12:15 PM,55.4,32.0,41,29.97,10.0,West,16.1,23.0,N/A,,Overcast,260,2012-10-11 17:15:00
12:55 PM,51.8,33.8,50,30.00,10.0,WNW,18.4,24.2,N/A,,Overcast,300,2012-10-11 17:55:00
1:15 PM,51.8,35.6,54,30.00,10.0,WNW,12.7,-,N/A,,Overcast,300,2012-10-11 18:15:00
1:35 PM,50.0,35.6,58,30.01,10.0,WNW,8.1,-,N/A,,Overcast,290,2012-10-11 18:35:00
1:55 PM,50.0,33.8,54,30.02,10.0,NW,13.8,19.6,N/A,,Overcast,320,2012-10-11 18:55:00
2:15 PM,48.2,33.8,58,30.03,10.0,NW,13.8,19.6,N/A,,Overcast,310,2012-10-11 19:15:00
2:35 PM,48.2,33.8,58,30.04,10.0,WNW,12.7,21.9,N/A,,Overcast,300,2012-10-11 19:35:00
2:55 PM,48.2,33.8,58,30.05,10.0,West,11.5,-,N/A,,Overcast,280,2012-10-11 19:55:00
3:15 PM,48.2,33.8,58,30.06,10.0,West,11.5,-,N/A,,Overcast,270,2012-10-11 20:15:00
3:55 PM,50.0,32.0,50,30.06,10.0,West,10.4,16.1,N/A,,Overcast,280,2012-10-11 20:55:00
4:15 PM,50.0,32.0,50,30.07,10.0,West,10.4,-,N/A,,Overcast,270,2012-10-11 21:15:00
4:35 PM,50.0,33.8,54,30.07,10.0,West,8.1,-,N/A,,Overcast,280,2012-10-11 21:35:00
5:15 PM,50.0,28.4,43,30.09,10.0,NW,9.2,18.4,N/A,,Mostly Cloudy,310,2012-10-11 22:15:00
5:35 PM,48.2,26.6,43,30.10,10.0,WNW,11.5,-,N/A,,Partly Cloudy,300,2012-10-11 22:35:00
5:55 PM,48.2,26.6,43,30.11,10.0,NW,10.4,-,N/A,,Scattered Clouds,320,2012-10-11 22:55:00
6:35 PM,46.4,23.0,40,30.13,10.0,NW,6.9,-,N/A,,Overcast,310,2012-10-11 23:35:00
6:55 PM,44.6,21.2,39,30.14,10.0,WNW,6.9,-,N/A,,Scattered Clouds,300,2012-10-11 23:55:00
7:15 PM,42.8,21.2,42,30.15,10.0,NNW,10.4,-,N/A,,Clear,340,2012-10-12 00:15:00
7:35 PM,44.6,21.2,39,30.16,10.0,NNW,10.4,-,N/A,,Clear,340,2012-10-12 00:35:00
8:15 PM,42.8,21.2,42,30.19,10.0,NW,8.1,-,N/A,,Clear,320,2012-10-12 01:15:00
8:35 PM,41.0,21.2,45,30.20,10.0,NW,8.1,-,N/A,,Clear,320,2012-10-12 01:35:00
8:55 PM,39.2,21.2,49,30.21,10.0,NW,6.9,-,N/A,,Clear,310,2012-10-12 01:55:00
9:15 PM,39.2,21.2,49,30.22,10.0,NW,5.8,-,N/A,,Clear,320,2012-10-12 02:15:00
9:35 PM,39.2,21.2,49,30.23,10.0,NW,8.1,-,N/A,,Clear,320,2012-10-12 02:35:00
9:55 PM,39.2,23.0,52,30.24,10.0,NNW,10.4,-,N/A,,Clear,330,2012-10-12 02:55:00
10:35 PM,37.4,23.0,56,30.26,10.0,NNW,11.5,-,N/A,,Clear,330,2012-10-12 03:35:00
10:55 PM,37.4,21.2,52,30.27,10.0,NW,8.1,-,N/A,,Clear,320,2012-10-12 03:55:00
11:15 PM,35.6,21.2,56,30.28,10.0,NW,6.9,-,N/A,,Clear,310,2012-10-12 04:15:00
11:35 PM,35.6,21.2,56,30.29,10.0,WNW,8.1,-,N/A,,Clear,300,2012-10-12 04:35:00
11:55 PM,35.6,21.2,56,30.29,10.0,NW,8.1,-,N/A,,Clear,310,2012-10-12 04:55:00